Time,TemperatureF,DewpointF,PressureIn,WindDirection,WindDirectionDegrees,WindSpeedMPH,WindSpeedGustMPH,Humidity,HourlyPrecipIn,Conditions,Clouds,dailyrainin,SoftwareType,DateUTC
2013-05-04 00:02:00,56.5,52.6,29.88,SE,135,0.7,7.8,87,0.00,,,0.00,WUHU21623XXSP,2013-05-04 05:02:00,
2013-05-04 00:07:00,56.8,53.0,29.88,South,180,5.8,13.2,87,0.00,,,0.00,WUHU21623XXSP,2013-05-04 05:07:00,
2013-05-04 00:12:00,56.8,53.0,29.87,SSE,157,9.2,13.2,87,0.00,,,0.00,WUHU21623XXSP,2013-05-04 05:12:00,
2013-05-04 00:17:00,56.8,53.0,29.88,SE,135,5.8,11.2,87,0.00,,,0.00,WUHU21623XXSP,2013-05-04 05:17:00,
2013-05-04 00:22:00,57.0,53.2,29.88,SE,135,0.0,9.4,87,0.00,,,0.00,WUHU21623XXSP,2013-05-04 05:22:00,
2013-05-04 00:27:00,57.0,53.2,29.87,SSE,157,4.9,6.5,87,0.02,,,0.02,WUHU21623XXSP,2013-05-04 05:27:00,
2013-05-04 00:32:00,57.0,53.2,29.88,SSE,157,8.1,8.1,87,0.02,,,0.02,WUHU21623XXSP,2013-05-04 05:32:00,
2013-05-04 00:37:00,57.0,53.2,29.88,SSE,157,9.2,9.2,87,0.02,,,0.02,WUHU21623XXSP,2013-05-04 05:37:00,
2013-05-04 00:42:00,57.0,53.2,29.89,SSE,157,5.4,9.2,87,0.02,,,0.02,WUHU21623XXSP,2013-05-04 05:42:00,
2013-05-04 00:47:00,57.0,53.2,29.88,SSE,157,4.9,9.6,87,0.02,,,0.02,WUHU21623XXSP,2013-05-04 05:47:00,
2013-05-04 00:52:00,57.0,53.2,29.88,SSE,157,5.1,12.3,87,0.02,,,0.02,WUHU21623XXSP,2013-05-04 05:52:00,
2013-05-04 00:58:00,57.0,53.2,29.88,SSE,157,4.5,12.3,87,0.02,,,0.02,WUHU21623XXSP,2013-05-04 05:58:00,
2013-05-04 01:03:00,57.0,53.2,29.87,SE,135,6.0,7.8,87,0.02,,,0.02,WUHU21623XXSP,2013-05-04 06:03:00,
2013-05-04 01:08:00,57.0,53.2,29.87,SE,135,7.4,8.3,87,0.02,,,0.02,WUHU21623XXSP,2013-05-04 06:08:00,
2013-05-04 01:13:00,57.0,53.2,29.87,SE,135,4.0,8.3,87,0.02,,,0.02,WUHU21623XXSP,2013-05-04 06:13:00,
2013-05-04 01:18:00,57.0,53.2,29.87,SE,135,1.1,7.4,87,0.02,,,0.02,WUHU21623XXSP,2013-05-04 06:18:00,
2013-05-04 01:23:00,57.0,53.2,29.87,SE,135,0.0,6.5,87,0.02,,,0.02,WUHU21623XXSP,2013-05-04 06:23:00,
2013-05-04 01:28:00,57.0,53.2,29.88,SE,135,3.8,5.4,87,0.00,,,0.02,WUHU21623XXSP,2013-05-04 06:28:00,
2013-05-04 01:33:00,57.0,53.2,29.88,SE,135,1.6,5.4,87,0.00,,,0.02,WUHU21623XXSP,2013-05-04 06:33:00,
2013-05-04 01:38:00,57.0,53.2,29.86,SE,135,1.8,5.1,87,0.00,,,0.02,WUHU21623XXSP,2013-05-04 06:38:00,
2013-05-04 01:43:00,57.0,53.2,29.86,SE,135,0.0,3.4,87,0.00,,,0.02,WUHU21623XXSP,2013-05-04 06:43:00,
2013-05-04 01:48:00,57.0,53.2,29.86,SE,135,3.6,3.8,87,0.00,,,0.02,WUHU21623XXSP,2013-05-04 06:48:00,
2013-05-04 01:53:00,57.0,53.2,29.87,SE,135,0.0,5.6,87,0.00,,,0.02,WUHU21623XXSP,2013-05-04 06:53:00,
2013-05-04 01:58:00,57.0,53.2,29.87,SE,135,1.1,6.7,87,0.00,,,0.02,WUHU21623XXSP,2013-05-04 06:58:00,
2013-05-04 02:03:00,57.0,53.2,29.86,SE,135,0.0,6.7,87,0.00,,,0.02,WUHU21623XXSP,2013-05-04 07:03:00,
2013-05-04 02:08:00,57.0,53.2,29.86,ESE,112,0.0,5.4,87,0.00,,,0.02,WUHU21623XXSP,2013-05-04 07:08:00,
2013-05-04 02:13:00,57.0,53.2,29.86,SE,135,0.0,6.0,87,0.00,,,0.02,WUHU21623XXSP,2013-05-04 07:13:00,
2013-05-04 02:18:00,57.0,53.2,29.86,SE,135,5.4,6.9,87,0.00,,,0.02,WUHU21623XXSP,2013-05-04 07:18:00,
2013-05-04 02:23:00,57.0,53.2,29.86,ESE,112,7.8,7.8,87,0.00,,,0.02,WUHU21623XXSP,2013-05-04 07:23:00,
2013-05-04 02:28:00,57.0,53.2,29.86,ESE,112,7.2,8.3,87,0.00,,,0.02,WUHU21623XXSP,2013-05-04 07:28:00,
2013-05-04 02:33:00,56.8,53.0,29.86,ESE,112,6.3,8.7,87,0.02,,,0.04,WUHU21623XXSP,2013-05-04 07:33:00,
2013-05-04 02:38:00,56.8,53.0,29.86,ESE,112,0.0,8.7,87,0.02,,,0.04,WUHU21623XXSP,2013-05-04 07:38:00,
2013-05-04 02:43:00,56.8,53.0,29.86,SE,135,6.3,8.5,87,0.02,,,0.04,WUHU21623XXSP,2013-05-04 07:43:00,
2013-05-04 02:48:00,56.8,53.0,29.86,SE,135,0.7,8.3,87,0.02,,,0.04,WUHU21623XXSP,2013-05-04 07:48:00,
2013-05-04 02:53:00,56.8,53.0,29.85,SE,135,0.0,8.3,87,0.02,,,0.04,WUHU21623XXSP,2013-05-04 07:53:00,
2013-05-04 02:58:00,56.8,53.0,29.85,SE,135,0.0,7.2,87,0.02,,,0.04,WUHU21623XXSP,2013-05-04 07:58:00,
2013-05-04 03:03:00,56.8,53.0,29.85,SE,135,0.0,7.2,87,0.02,,,0.04,WUHU21623XXSP,2013-05-04 08:03:00,
2013-05-04 03:08:00,56.8,53.0,29.85,SE,135,0.0,5.6,87,0.02,,,0.04,WUHU21623XXSP,2013-05-04 08:08:00,
2013-05-04 03:13:00,56.8,53.0,29.86,SE,135,3.8,5.6,87,0.02,,,0.04,WUHU21623XXSP,2013-05-04 08:13:00,
2013-05-04 03:18:00,56.7,52.8,29.86,SE,135,0.9,5.8,87,0.02,,,0.04,WUHU21623XXSP,2013-05-04 08:18:00,
2013-05-04 03:23:00,56.7,52.8,29.85,SE,135,0.0,5.8,87,0.02,,,0.04,WUHU21623XXSP,2013-05-04 08:23:00,
2013-05-04 03:28:00,56.5,52.6,29.85,ESE,112,0.0,7.8,87,0.02,,,0.04,WUHU21623XXSP,2013-05-04 08:28:00,
2013-05-04 03:33:00,56.5,52.6,29.85,ESE,112,0.0,7.8,87,0.00,,,0.04,WUHU21623XXSP,2013-05-04 08:33:00,
2013-05-04 03:38:00,56.5,52.6,29.86,ESE,112,0.0,4.0,87,0.00,,,0.04,WUHU21623XXSP,2013-05-04 08:38:00,
2013-05-04 03:43:00,56.5,52.6,29.85,ESE,112,0.0,5.1,87,0.00,,,0.04,WUHU21623XXSP,2013-05-04 08:43:00,
2013-05-04 03:48:00,56.5,52.6,29.86,ESE,112,0.0,5.1,87,0.00,,,0.04,WUHU21623XXSP,2013-05-04 08:48:00,
2013-05-04 03:53:00,56.5,52.6,29.85,SE,135,0.0,2.9,87,0.00,,,0.04,WUHU21623XXSP,2013-05-04 08:53:00,
2013-05-04 03:59:00,56.5,52.6,29.85,SE,135,0.0,2.5,87,0.00,,,0.04,WUHU21623XXSP,2013-05-04 08:59:00,
2013-05-04 04:04:00,56.3,52.4,29.85,SE,135,1.8,1.8,87,0.00,,,0.04,WUHU21623XXSP,2013-05-04 09:04:00,
2013-05-04 04:09:00,56.3,52.4,29.85,SE,135,0.0,3.8,87,0.00,,,0.04,WUHU21623XXSP,2013-05-04 09:09:00,
2013-05-04 04:14:00,56.3,52.4,29.85,SE,135,0.4,3.8,87,0.00,,,0.04,WUHU21623XXSP,2013-05-04 09:14:00,
2013-05-04 04:19:00,56.3,52.4,29.85,SE,135,4.0,5.6,87,0.00,,,0.04,WUHU21623XXSP,2013-05-04 09:19:00,
2013-05-04 04:24:00,56.3,52.4,29.85,SE,135,0.0,5.6,87,0.00,,,0.04,WUHU21623XXSP,2013-05-04 09:24:00,
2013-05-04 04:29:00,56.3,52.4,29.86,ESE,112,1.3,7.6,87,0.00,,,0.04,WUHU21623XXSP,2013-05-04 09:29:00,
2013-05-04 04:34:00,56.3,52.4,29.86,SE,135,1.3,7.6,87,0.00,,,0.04,WUHU21623XXSP,2013-05-04 09:34:00,
2013-05-04 04:39:00,56.3,52.4,29.86,ESE,112,1.8,5.6,87,0.00,,,0.04,WUHU21623XXSP,2013-05-04 09:39:00,
2013-05-04 04:44:00,56.3,52.4,29.85,ESE,112,3.4,7.2,87,0.02,,,0.06,WUHU21623XXSP,2013-05-04 09:44:00,
2013-05-04 04:49:00,56.3,52.4,29.86,ESE,112,0.0,7.2,87,0.02,,,0.06,WUHU21623XXSP,2013-05-04 09:49:00,
2013-05-04 04:54:00,56.3,52.4,29.85,ESE,112,0.0,6.9,87,0.02,,,0.06,WUHU21623XXSP,2013-05-04 09:54:00,
2013-05-04 04:59:00,56.3,52.4,29.85,ESE,112,0.9,6.9,87,0.02,,,0.06,WUHU21623XXSP,2013-05-04 09:59:00,
2013-05-04 05:04:00,56.1,52.3,29.85,ESE,112,1.1,6.9,87,0.02,,,0.06,WUHU21623XXSP,2013-05-04 10:04:00,
2013-05-04 05:09:00,56.1,52.3,29.85,ESE,112,2.5,6.9,87,0.02,,,0.06,WUHU21623XXSP,2013-05-04 10:09:00,
2013-05-04 05:14:00,56.1,52.3,29.86,ESE,112,0.0,6.9,87,0.02,,,0.06,WUHU21623XXSP,2013-05-04 10:14:00,
2013-05-04 05:19:00,56.1,52.3,29.86,ESE,112,0.0,6.9,87,0.02,,,0.06,WUHU21623XXSP,2013-05-04 10:19:00,
2013-05-04 05:24:00,56.1,52.3,29.86,ESE,112,7.4,7.4,87,0.02,,,0.06,WUHU21623XXSP,2013-05-04 10:24:00,
2013-05-04 05:29:00,56.1,52.3,29.85,ESE,112,2.0,7.4,87,0.02,,,0.06,WUHU21623XXSP,2013-05-04 10:29:00,
2013-05-04 05:34:00,55.9,52.1,29.86,ESE,112,1.6,6.9,87,0.02,,,0.06,WUHU21623XXSP,2013-05-04 10:34:00,
2013-05-04 05:39:00,56.1,52.3,29.86,ESE,112,7.4,7.8,87,0.00,,,0.06,WUHU21623XXSP,2013-05-04 10:39:00,
2013-05-04 05:44:00,56.1,52.3,29.86,ESE,112,0.0,7.8,87,0.00,,,0.06,WUHU21623XXSP,2013-05-04 10:44:00,
2013-05-04 05:49:00,56.1,52.3,29.86,ESE,112,1.6,7.8,87,0.00,,,0.06,WUHU21623XXSP,2013-05-04 10:49:00,
2013-05-04 05:54:00,56.1,52.3,29.86,ESE,112,1.8,8.5,87,0.00,,,0.06,WUHU21623XXSP,2013-05-04 10:54:00,
2013-05-04 05:59:00,56.1,52.3,29.86,ESE,112,3.1,8.5,87,0.00,,,0.06,WUHU21623XXSP,2013-05-04 10:59:00,
2013-05-04 06:04:00,56.1,52.3,29.86,ESE,112,8.7,11.2,87,0.00,,,0.06,WUHU21623XXSP,2013-05-04 11:04:00,
2013-05-04 06:09:00,56.1,52.3,29.86,ESE,112,8.3,11.2,87,0.00,,,0.06,WUHU21623XXSP,2013-05-04 11:09:00,
2013-05-04 06:14:00,56.1,52.3,29.86,East,90,6.3,8.3,87,0.00,,,0.06,WUHU21623XXSP,2013-05-04 11:14:00,
2013-05-04 06:19:00,56.3,52.4,29.86,ESE,112,1.8,8.9,87,0.00,,,0.06,WUHU21623XXSP,2013-05-04 11:19:00,
2013-05-04 06:24:00,56.5,52.6,29.87,ESE,112,7.6,10.3,87,0.00,,,0.06,WUHU21623XXSP,2013-05-04 11:24:00,
2013-05-04 06:29:00,56.5,52.6,29.87,ESE,112,2.2,10.3,87,0.00,,,0.06,WUHU21623XXSP,2013-05-04 11:29:00,
2013-05-04 06:35:00,56.7,52.8,29.87,ESE,112,6.5,9.8,87,0.00,,,0.06,WUHU21623XXSP,2013-05-04 11:35:00,
2013-05-04 06:40:00,56.8,53.0,29.87,ESE,112,10.5,10.5,87,0.00,,,0.06,WUHU21623XXSP,2013-05-04 11:40:00,
2013-05-04 06:45:00,56.8,53.0,29.87,ESE,112,5.8,12.1,87,0.02,,,0.08,WUHU21623XXSP,2013-05-04 11:45:00,
2013-05-04 06:50:00,57.0,53.2,29.87,ESE,112,4.9,12.1,87,0.02,,,0.08,WUHU21623XXSP,2013-05-04 11:50:00,
2013-05-04 06:55:00,57.0,53.2,29.87,ESE,112,7.6,11.0,87,0.02,,,0.08,WUHU21623XXSP,2013-05-04 11:55:00,
2013-05-04 07:00:00,57.2,53.3,29.87,ESE,112,6.3,11.0,87,0.02,,,0.08,WUHU21623XXSP,2013-05-04 12:00:00,
2013-05-04 07:05:00,57.4,53.5,29.88,ESE,112,2.7,10.5,87,0.02,,,0.08,WUHU21623XXSP,2013-05-04 12:05:00,
2013-05-04 07:10:00,57.4,53.5,29.88,ESE,112,6.7,9.8,87,0.02,,,0.08,WUHU21623XXSP,2013-05-04 12:10:00,
2013-05-04 07:15:00,57.6,53.7,29.88,ESE,112,4.7,9.8,87,0.02,,,0.08,WUHU21623XXSP,2013-05-04 12:15:00,
2013-05-04 07:20:00,57.7,53.9,29.88,ESE,112,8.7,9.8,87,0.02,,,0.08,WUHU21623XXSP,2013-05-04 12:20:00,
2013-05-04 07:25:00,57.9,54.1,29.89,ESE,112,4.3,14.5,87,0.02,,,0.08,WUHU21623XXSP,2013-05-04 12:25:00,
2013-05-04 07:30:00,57.9,54.1,29.89,ESE,112,9.8,14.5,87,0.02,,,0.08,WUHU21623XXSP,2013-05-04 12:30:00,
2013-05-04 07:35:00,58.3,54.4,29.89,ESE,112,5.6,10.1,87,0.02,,,0.08,WUHU21623XXSP,2013-05-04 12:35:00,
2013-05-04 07:41:00,58.6,54.5,29.89,ESE,112,7.6,11.2,86,0.02,,,0.08,WUHU21623XXSP,2013-05-04 12:41:00,
2013-05-04 07:46:00,58.8,55.0,29.89,ESE,112,7.8,11.2,87,0.00,,,0.08,WUHU21623XXSP,2013-05-04 12:46:00,
2013-05-04 07:51:00,59.0,55.1,29.89,ESE,112,6.0,10.5,87,0.00,,,0.08,WUHU21623XXSP,2013-05-04 12:51:00,
2013-05-04 07:56:00,59.5,55.4,29.89,ESE,112,6.0,11.2,86,0.00,,,0.08,WUHU21623XXSP,2013-05-04 12:56:00,
2013-05-04 08:01:00,59.9,55.7,29.89,ESE,112,8.5,11.2,86,0.00,,,0.08,WUHU21623XXSP,2013-05-04 13:01:00,
2013-05-04 08:04:00,60.1,55.9,29.89,ESE,112,7.2,11.6,86,0.00,,,0.08,WUHU21623XXSP,2013-05-04 13:04:00,
2013-05-04 08:09:00,60.3,55.8,29.89,SE,135,10.1,13.6,85,0.00,,,0.08,WUHU21623XXSP,2013-05-04 13:09:00,
2013-05-04 08:14:00,60.6,56.1,29.89,ESE,112,7.4,13.6,85,0.00,,,0.08,WUHU21623XXSP,2013-05-04 13:14:00,
2013-05-04 08:19:00,61.0,56.5,29.89,ESE,112,6.0,13.6,85,0.00,,,0.08,WUHU21623XXSP,2013-05-04 13:19:00,
2013-05-04 08:24:00,61.5,56.6,29.89,ESE,112,8.3,11.2,84,0.00,,,0.08,WUHU21623XXSP,2013-05-04 13:24:00,
2013-05-04 08:29:00,62.2,57.0,29.90,SE,135,9.4,11.0,83,0.00,,,0.08,WUHU21623XXSP,2013-05-04 13:29:00,
2013-05-04 08:34:00,62.1,56.5,29.90,SE,135,8.9,11.0,82,0.00,,,0.08,WUHU21623XXSP,2013-05-04 13:34:00,
2013-05-04 08:39:00,61.7,55.8,29.90,ESE,112,9.2,13.4,81,0.00,,,0.08,WUHU21623XXSP,2013-05-04 13:39:00,
2013-05-04 09:30:00,64.0,56.4,29.91,ESE,113,9.8,9.8,76,0.00,,,0.00,WUHU21623XXSP,2013-05-04 14:30:00,
2013-05-04 10:30:00,66.4,56.5,29.92,SSE,158,14.3,14.3,70,0.00,,,0.00,WUHU21623XXSP,2013-05-04 15:30:00,
2013-05-04 11:30:00,67.1,56.0,29.92,SE,135,7.4,7.4,67,0.00,,,0.00,WUHU21623XXSP,2013-05-04 16:30:00,
2013-05-04 12:30:00,68.0,57.2,29.92,SE,135,5.8,5.8,68,0.00,,,0.00,WUHU21623XXSP,2013-05-04 17:30:00,
2013-05-04 13:30:00,69.6,57.9,29.91,SE,135,8.5,8.5,66,0.00,,,0.02,WUHU21623XXSP,2013-05-04 18:30:00,
2013-05-04 14:30:00,68.0,57.6,29.92,South,180,1.6,1.6,69,0.00,,,0.02,WUHU21623XXSP,2013-05-04 19:30:00,
2013-05-04 15:30:00,61.7,53.4,29.92,SSE,158,4.0,4.0,74,0.00,,,0.02,WUHU21623XXSP,2013-05-04 20:30:00,
2013-05-04 15:47:00,60.3,52.7,29.93,SSE,157,6.5,6.5,76,0.00,,,0.02,WUHU21623XXSP,2013-05-04 20:47:00,
2013-05-04 15:53:00,59.9,52.3,29.93,SSE,157,8.3,14.3,76,1.32,,,1.34,WUHU21623XXSP,2013-05-04 20:53:00,
2013-05-04 15:58:00,59.5,52.3,29.93,SSE,157,10.3,16.3,77,1.32,,,1.34,WUHU21623XXSP,2013-05-04 20:58:00,
2013-05-04 16:03:00,59.2,52.3,29.93,SSE,157,13.4,16.3,78,1.34,,,1.36,WUHU21623XXSP,2013-05-04 21:03:00,
2013-05-04 16:08:00,58.8,52.0,29.93,SE,135,7.8,13.9,78,1.34,,,1.36,WUHU21623XXSP,2013-05-04 21:08:00,
2013-05-04 16:13:00,58.8,52.3,29.93,SE,135,6.5,11.2,79,1.34,,,1.36,WUHU21623XXSP,2013-05-04 21:13:00,
2013-05-04 16:18:00,58.8,52.3,29.94,South,180,5.6,10.5,79,1.34,,,1.36,WUHU21623XXSP,2013-05-04 21:18:00,
2013-05-04 16:23:00,58.6,52.5,29.93,SSE,157,4.7,10.1,80,1.34,,,1.36,WUHU21623XXSP,2013-05-04 21:23:00,
2013-05-04 16:28:00,58.6,52.5,29.93,SE,135,5.6,10.1,80,1.34,,,1.36,WUHU21623XXSP,2013-05-04 21:28:00,
2013-05-04 16:33:00,58.5,52.7,29.94,SE,135,6.0,8.1,81,0.02,,,1.36,WUHU21623XXSP,2013-05-04 21:33:00,
2013-05-04 16:38:00,58.3,52.5,29.94,SE,135,8.3,8.3,81,0.02,,,1.36,WUHU21623XXSP,2013-05-04 21:38:00,
2013-05-04 16:43:00,58.3,52.5,29.94,SE,135,7.8,8.3,81,0.02,,,1.36,WUHU21623XXSP,2013-05-04 21:43:00,
2013-05-04 16:48:00,58.1,52.3,29.94,SE,135,4.0,8.1,81,0.02,,,1.36,WUHU21623XXSP,2013-05-04 21:48:00,
2013-05-04 16:53:00,58.1,52.6,29.94,SE,135,7.2,8.1,82,0.02,,,1.36,WUHU21623XXSP,2013-05-04 21:53:00,
2013-05-04 16:58:00,58.1,52.6,29.94,SE,135,4.5,7.6,82,0.00,,,1.36,WUHU21623XXSP,2013-05-04 21:58:00,
2013-05-04 17:03:00,58.1,52.6,29.94,SE,135,4.5,7.6,82,0.00,,,1.36,WUHU21623XXSP,2013-05-04 22:03:00,
2013-05-04 17:08:00,58.1,53.0,29.94,South,180,3.8,8.1,83,0.00,,,1.36,WUHU21623XXSP,2013-05-04 22:08:00,
2013-05-04 17:13:00,58.1,53.0,29.94,SSE,157,6.0,8.1,83,0.00,,,1.36,WUHU21623XXSP,2013-05-04 22:13:00,
2013-05-04 17:18:00,58.1,53.0,29.94,SE,135,6.7,8.3,83,0.00,,,1.36,WUHU21623XXSP,2013-05-04 22:18:00,
2013-05-04 17:23:00,58.3,53.1,29.94,SE,135,4.7,8.3,83,0.00,,,1.36,WUHU21623XXSP,2013-05-04 22:23:00,
2013-05-04 17:28:00,58.5,53.3,29.94,SSE,157,0.0,6.0,83,0.00,,,1.36,WUHU21623XXSP,2013-05-04 22:28:00,
2013-05-04 17:33:00,58.5,53.3,29.94,SE,135,4.3,7.2,83,0.00,,,1.36,WUHU21623XXSP,2013-05-04 22:33:00,
2013-05-04 17:39:00,58.5,53.3,29.94,SSE,157,1.1,7.2,83,0.00,,,1.36,WUHU21623XXSP,2013-05-04 22:39:00,
2013-05-04 17:44:00,58.5,53.3,29.95,SSE,157,3.1,6.7,83,0.00,,,1.36,WUHU21623XXSP,2013-05-04 22:44:00,
2013-05-04 17:49:00,58.6,53.5,29.95,SSE,157,4.0,7.4,83,0.00,,,1.36,WUHU21623XXSP,2013-05-04 22:49:00,
2013-05-04 17:54:00,58.8,53.7,29.95,SSE,157,0.0,7.4,83,0.00,,,1.36,WUHU21623XXSP,2013-05-04 22:54:00,
2013-05-04 17:59:00,58.6,53.5,29.94,SSE,157,0.0,5.4,83,0.00,,,1.36,WUHU21623XXSP,2013-05-04 22:59:00,
2013-05-04 18:04:00,58.8,53.7,29.95,SE,135,0.0,5.4,83,0.00,,,1.36,WUHU21623XXSP,2013-05-04 23:04:00,
2013-05-04 18:09:00,58.8,53.7,29.95,SSE,157,6.9,8.1,83,0.00,,,1.36,WUHU21623XXSP,2013-05-04 23:09:00,
2013-05-04 18:14:00,58.8,53.7,29.95,SSE,157,6.5,8.1,83,0.00,,,1.36,WUHU21623XXSP,2013-05-04 23:14:00,
2013-05-04 18:19:00,58.5,53.3,29.95,SE,135,0.0,6.5,83,0.00,,,1.36,WUHU21623XXSP,2013-05-04 23:19:00,
2013-05-04 18:24:00,58.3,53.1,29.95,SSE,157,3.1,6.3,83,0.00,,,1.36,WUHU21623XXSP,2013-05-04 23:24:00,
2013-05-04 18:29:00,58.3,53.1,29.96,SSE,157,1.6,5.1,83,0.00,,,1.36,WUHU21623XXSP,2013-05-04 23:29:00,
2013-05-04 18:34:00,58.1,53.0,29.96,SSE,157,4.7,6.9,83,0.00,,,1.36,WUHU21623XXSP,2013-05-04 23:34:00,
2013-05-04 18:39:00,58.1,53.0,29.96,SSE,157,5.6,6.9,83,0.00,,,1.36,WUHU21623XXSP,2013-05-04 23:39:00,
2013-05-04 18:44:00,57.9,52.8,29.96,SSE,157,2.9,7.2,83,0.00,,,1.36,WUHU21623XXSP,2013-05-04 23:44:00,
2013-05-04 18:49:00,57.9,52.8,29.97,SSE,157,6.7,7.6,83,0.00,,,1.36,WUHU21623XXSP,2013-05-04 23:49:00,
2013-05-04 18:54:00,57.9,52.8,29.97,SSE,157,1.1,7.6,83,0.00,,,1.36,WUHU21623XXSP,2013-05-04 23:54:00,
2013-05-04 18:59:00,57.9,52.8,29.97,South,180,6.5,10.1,83,0.00,,,1.36,WUHU21623XXSP,2013-05-04 23:59:00,
2013-05-04 19:04:00,57.7,52.9,29.97,SSE,157,7.8,10.1,84,0.00,,,1.36,WUHU21623XXSP,2013-05-05 00:04:00,
2013-05-04 19:09:00,57.7,52.9,29.97,SSE,157,1.8,9.8,84,0.00,,,1.36,WUHU21623XXSP,2013-05-05 00:09:00,
2013-05-04 19:14:00,57.6,52.7,29.98,SSE,157,0.7,9.8,84,0.00,,,1.36,WUHU21623XXSP,2013-05-05 00:14:00,
2013-05-04 19:19:00,57.6,52.7,29.98,SSE,157,2.9,8.7,84,0.00,,,1.36,WUHU21623XXSP,2013-05-05 00:19:00,
2013-05-04 19:24:00,57.6,52.7,29.98,SSE,157,0.0,8.5,84,0.00,,,1.36,WUHU21623XXSP,2013-05-05 00:24:00,
2013-05-04 19:29:00,57.4,52.6,29.98,SE,135,1.3,6.5,84,0.00,,,1.36,WUHU21623XXSP,2013-05-05 00:29:00,
2013-05-04 19:34:00,57.4,52.6,29.99,SSE,157,1.6,6.9,84,0.00,,,1.36,WUHU21623XXSP,2013-05-05 00:34:00,
2013-05-04 19:39:00,57.4,52.6,29.99,SSE,157,3.8,6.9,84,0.00,,,1.36,WUHU21623XXSP,2013-05-05 00:39:00,
2013-05-04 19:44:00,57.4,52.6,29.99,SSE,157,4.7,9.4,84,0.00,,,1.36,WUHU21623XXSP,2013-05-05 00:44:00,
2013-05-04 19:49:00,57.4,52.6,29.99,SSE,157,0.0,9.4,84,0.00,,,1.36,WUHU21623XXSP,2013-05-05 00:49:00,
2013-05-04 19:54:00,57.4,52.6,30.00,South,180,3.1,7.6,84,0.00,,,1.36,WUHU21623XXSP,2013-05-05 00:54:00,
2013-05-04 19:59:00,57.0,52.2,30.00,South,180,1.1,7.4,84,0.00,,,1.36,WUHU21623XXSP,2013-05-05 00:59:00,
2013-05-04 20:04:00,57.0,52.2,30.00,SSE,157,1.1,7.4,84,0.00,,,1.36,WUHU21623XXSP,2013-05-05 01:04:00,
2013-05-04 20:10:00,57.0,52.2,30.00,SSE,157,6.0,10.7,84,0.00,,,1.36,WUHU21623XXSP,2013-05-05 01:10:00,
2013-05-04 20:15:00,56.8,52.0,30.00,SSE,157,0.0,10.7,84,0.00,,,1.36,WUHU21623XXSP,2013-05-05 01:15:00,
2013-05-04 20:20:00,56.7,51.8,30.00,South,180,6.9,10.3,84,0.00,,,1.36,WUHU21623XXSP,2013-05-05 01:20:00,
2013-05-04 20:25:00,56.5,51.7,30.00,SSE,157,0.0,6.9,84,0.00,,,1.36,WUHU21623XXSP,2013-05-05 01:25:00,
2013-05-04 20:30:00,56.5,51.7,30.01,SSE,157,0.0,6.0,84,0.00,,,1.36,WUHU21623XXSP,2013-05-05 01:30:00,
2013-05-04 20:35:00,56.5,51.7,30.00,SSW,202,0.0,4.7,84,0.00,,,1.36,WUHU21623XXSP,2013-05-05 01:35:00,
2013-05-04 20:40:00,56.3,51.5,30.01,SSW,202,5.6,5.6,84,0.00,,,1.36,WUHU21623XXSP,2013-05-05 01:40:00,
2013-05-04 20:45:00,56.3,51.5,30.01,SSW,202,0.0,7.6,84,0.00,,,1.36,WUHU21623XXSP,2013-05-05 01:45:00,
2013-05-04 20:50:00,56.1,51.3,30.01,South,180,2.9,7.6,84,0.00,,,1.36,WUHU21623XXSP,2013-05-05 01:50:00,
2013-05-04 20:55:00,56.1,51.6,30.00,South,180,0.0,6.9,85,0.00,,,1.36,WUHU21623XXSP,2013-05-05 01:55:00,
2013-05-04 21:00:00,56.1,51.6,30.01,SW,225,0.0,6.7,85,0.00,,,1.36,WUHU21623XXSP,2013-05-05 02:00:00,
2013-05-04 21:05:00,55.9,51.4,30.01,SSW,202,0.0,7.6,85,0.00,,,1.36,WUHU21623XXSP,2013-05-05 02:05:00,
2013-05-04 21:10:00,55.9,51.4,30.00,SSW,202,3.1,7.6,85,0.00,,,1.36,WUHU21623XXSP,2013-05-05 02:10:00,
2013-05-04 21:15:00,55.8,51.3,30.01,SSW,202,6.9,6.9,85,0.00,,,1.36,WUHU21623XXSP,2013-05-05 02:15:00,
2013-05-04 21:20:00,55.8,51.3,30.01,SSW,202,0.0,6.9,85,0.00,,,1.36,WUHU21623XXSP,2013-05-05 02:20:00,
2013-05-04 21:25:00,55.6,51.1,30.01,SSW,202,4.3,4.3,85,0.00,,,1.36,WUHU21623XXSP,2013-05-05 02:25:00,
2013-05-04 21:30:00,55.6,51.1,30.01,SSW,202,3.1,6.7,85,0.00,,,1.36,WUHU21623XXSP,2013-05-05 02:30:00,
2013-05-04 21:35:00,55.6,51.1,30.01,SW,225,0.0,6.7,85,0.00,,,1.36,WUHU21623XXSP,2013-05-05 02:35:00,
2013-05-04 21:40:00,55.4,50.9,30.01,SW,225,3.8,7.4,85,0.00,,,1.36,WUHU21623XXSP,2013-05-05 02:40:00,
2013-05-04 21:45:00,55.4,50.9,30.01,SW,225,1.6,7.4,85,0.00,,,1.36,WUHU21623XXSP,2013-05-05 02:45:00,
2013-05-04 21:48:00,55.4,50.9,30.01,SW,225,0.0,7.4,85,0.00,,,1.36,WUHU21623XXSP,2013-05-05 02:48:00,
2013-05-04 22:30:00,55.2,51.1,30.00,WSW,248,5.1,5.1,86,0.00,,,0.00,WUHU21623XXSP,2013-05-05 03:30:00,
2013-05-04 23:30:00,54.3,50.2,29.99,WSW,248,0.0,0.0,86,0.00,,,0.04,WUHU21623XXSP,2013-05-05 04:30:00,